INMARSAT 5-F1

Last updated on Wed Sep 09 2026 00:03:00 GMT+0000 (Coordinated Universal Time)

1 39476U 13073A 26251.45747322 .00000007 00000+0 00000+0 0 9998 2 39476 0.0200 132.4611 0000376 77.7467 4.6395 1.00272273 46411
UTC large
Height (km)
Speed (km/s)
/
Latitude / Longitude
Inclination (degrees)
Orbital Period (minutes)
Azimuth
Elevation
Range (km)
Doppler Factor

Next 0 passes for location: London (51.5072 / 0.1276)

No passes found over London.
INMARSAT 5-F1